Time,TemperatureF,DewpointF,PressureIn,WindDirection,WindDirectionDegrees,WindSpeedMPH,WindSpeedGustMPH,Humidity,HourlyPrecipIn,Conditions,Clouds,dailyrainin,SoftwareType,DateUTC
2013-06-08 00:01:00,59.1,58.2,29.55,NNE,30,11.0,13.0,97,0.06,,---,2.82,VWS V14.00,2013-06-08 04:01:00,
2013-06-08 00:02:00,59.1,58.2,29.55,NE,34,10.0,13.0,97,0.06,,---,2.82,VWS V14.00,2013-06-08 04:02:00,
2013-06-08 00:07:00,59.0,58.2,29.54,NE,39,6.0,18.0,97,0.05,,---,0.00,VWS V14.00,2013-06-08 04:07:00,
2013-06-08 00:13:00,59.0,58.2,29.54,North,1,3.0,11.0,97,0.04,,---,0.00,VWS V14.00,2013-06-08 04:13:00,
2013-06-08 00:18:00,58.9,58.0,29.54,NNE,30,5.0,17.0,97,0.04,,---,0.00,VWS V14.00,2013-06-08 04:18:00,
2013-06-08 00:23:00,58.9,58.0,29.54,NE,38,4.0,14.0,97,0.04,,---,0.00,VWS V14.00,2013-06-08 04:23:00,
2013-06-08 00:28:00,58.9,58.0,29.53,NE,47,5.0,9.0,97,0.04,,---,0.00,VWS V14.00,2013-06-08 04:28:00,
2013-06-08 00:33:00,58.8,58.0,29.53,NNE,28,3.0,14.0,97,0.03,,---,0.00,VWS V14.00,2013-06-08 04:33:00,
2013-06-08 00:38:00,58.8,58.0,29.53,NW,323,5.0,10.0,97,0.00,,---,0.00,VWS V14.00,2013-06-08 04:38:00,
2013-06-08 00:43:00,58.7,57.8,29.53,NNE,27,8.0,13.0,97,0.00,,---,0.00,VWS V14.00,2013-06-08 04:43:00,
2013-06-08 00:48:00,58.7,57.8,29.53,NNE,30,8.0,9.0,97,0.00,,---,0.00,VWS V14.00,2013-06-08 04:48:00,
2013-06-08 00:53:00,58.7,57.8,29.52,NE,54,8.0,8.0,97,0.00,,---,0.00,VWS V14.00,2013-06-08 04:53:00,
2013-06-08 00:59:00,58.6,57.8,29.52,NE,51,4.0,8.0,97,0.00,,---,0.00,VWS V14.00,2013-06-08 04:59:00,
2013-06-08 01:04:00,58.5,57.7,29.52,NNW,341,2.0,7.0,97,0.00,,---,0.00,VWS V14.00,2013-06-08 05:04:00,
2013-06-08 01:08:00,58.5,57.7,29.52,NE,39,2.0,3.0,97,0.00,,---,0.00,VWS V14.00,2013-06-08 05:08:00,
2013-06-08 01:14:00,58.4,57.6,29.52,NNE,33,11.0,11.0,97,0.00,,---,0.00,VWS V14.00,2013-06-08 05:14:00,
2013-06-08 01:19:00,58.4,57.6,29.51,NE,41,2.0,8.0,97,0.00,,---,0.00,VWS V14.00,2013-06-08 05:19:00,
2013-06-08 01:24:00,58.4,57.6,29.51,North,10,7.0,8.0,97,0.01,,---,0.01,VWS V14.00,2013-06-08 05:24:00,
2013-06-08 01:29:00,58.3,57.5,29.51,NNE,27,12.0,12.0,97,0.01,,---,0.01,VWS V14.00,2013-06-08 05:29:00,
2013-06-08 01:34:00,58.3,57.5,29.51,NE,34,6.0,7.0,97,0.01,,---,0.01,VWS V14.00,2013-06-08 05:34:00,
2013-06-08 01:39:00,58.2,57.4,29.51,NNE,30,4.0,10.0,97,0.01,,---,0.01,VWS V14.00,2013-06-08 05:39:00,
2013-06-08 01:44:00,58.2,57.4,29.51,NW,324,4.0,6.0,97,0.01,,---,0.01,VWS V14.00,2013-06-08 05:44:00,
2013-06-08 01:49:00,58.2,57.4,29.51,NNW,340,6.0,11.0,97,0.01,,---,0.01,VWS V14.00,2013-06-08 05:49:00,
2013-06-08 01:55:00,58.2,57.4,29.51,NNW,331,7.0,10.0,97,0.01,,---,0.01,VWS V14.00,2013-06-08 05:55:00,
2013-06-08 02:00:00,58.1,57.5,29.51,NNE,29,10.0,12.0,98,0.01,,---,0.01,VWS V14.00,2013-06-08 06:00:00,
2013-06-08 02:05:00,58.0,57.2,29.51,NNW,347,6.0,12.0,97,0.01,,---,0.01,VWS V14.00,2013-06-08 06:05:00,
2013-06-08 02:10:00,57.9,57.1,29.51,NNE,30,11.0,11.0,97,0.02,,---,0.02,VWS V14.00,2013-06-08 06:10:00,
2013-06-08 02:15:00,57.8,57.0,29.51,NNE,27,8.0,10.0,97,0.02,,---,0.02,VWS V14.00,2013-06-08 06:15:00,
2013-06-08 02:20:00,57.8,57.0,29.51,NE,34,12.0,15.0,97,0.02,,---,0.02,VWS V14.00,2013-06-08 06:20:00,
2013-06-08 02:25:00,57.8,57.0,29.51,NNE,27,5.0,9.0,97,0.01,,---,0.02,VWS V14.00,2013-06-08 06:25:00,
2013-06-08 02:30:00,57.7,56.9,29.51,NNE,18,13.0,13.0,97,0.01,,---,0.02,VWS V14.00,2013-06-08 06:30:00,
2013-06-08 02:35:00,57.6,56.8,29.51,NNW,348,8.0,13.0,97,0.01,,---,0.02,VWS V14.00,2013-06-08 06:35:00,
2013-06-08 02:40:00,57.6,56.8,29.51,NNE,15,5.0,14.0,97,0.01,,---,0.02,VWS V14.00,2013-06-08 06:40:00,
2013-06-08 02:45:00,57.6,56.8,29.50,North,358,9.0,12.0,97,0.01,,---,0.02,VWS V14.00,2013-06-08 06:45:00,
2013-06-08 02:50:00,57.6,56.8,29.50,NE,41,6.0,13.0,97,0.01,,---,0.02,VWS V14.00,2013-06-08 06:50:00,
2013-06-08 02:56:00,57.6,56.8,29.51,North,5,5.0,10.0,97,0.01,,---,0.02,VWS V14.00,2013-06-08 06:56:00,
2013-06-08 03:01:00,57.7,56.9,29.51,WNW,302,9.0,10.0,97,0.01,,---,0.02,VWS V14.00,2013-06-08 07:01:00,
2013-06-08 03:06:00,57.8,57.0,29.51,NNE,32,7.0,10.0,97,0.01,,---,0.02,VWS V14.00,2013-06-08 07:06:00,
2013-06-08 03:11:00,57.8,57.0,29.51,North,350,10.0,12.0,97,0.00,,---,0.02,VWS V14.00,2013-06-08 07:11:00,
2013-06-08 03:16:00,57.8,57.0,29.51,NNE,31,5.0,13.0,97,0.00,,---,0.02,VWS V14.00,2013-06-08 07:16:00,
2013-06-08 03:21:00,57.9,57.1,29.52,NW,325,4.0,13.0,97,0.00,,---,0.02,VWS V14.00,2013-06-08 07:21:00,
2013-06-08 03:27:00,57.9,57.1,29.52,NNW,334,7.0,11.0,97,0.00,,---,0.02,VWS V14.00,2013-06-08 07:27:00,
2013-06-08 03:32:00,57.9,57.1,29.52,NNW,342,2.0,8.0,97,0.00,,---,0.02,VWS V14.00,2013-06-08 07:32:00,
2013-06-08 03:37:00,57.8,57.0,29.52,NNW,342,8.0,13.0,97,0.00,,---,0.02,VWS V14.00,2013-06-08 07:37:00,
2013-06-08 03:42:00,57.6,56.8,29.53,NW,322,9.0,12.0,97,0.00,,---,0.02,VWS V14.00,2013-06-08 07:42:00,
2013-06-08 03:47:00,57.5,56.7,29.53,North,5,14.0,14.0,97,0.00,,---,0.02,VWS V14.00,2013-06-08 07:47:00,
2013-06-08 03:52:00,57.5,56.4,29.53,NNE,16,14.0,14.0,96,0.00,,---,0.02,VWS V14.00,2013-06-08 07:52:00,
2013-06-08 03:57:00,57.4,56.3,29.53,NNW,338,5.0,18.0,96,0.00,,---,0.02,VWS V14.00,2013-06-08 07:57:00,
2013-06-08 04:02:00,57.4,56.3,29.54,North,354,6.0,13.0,96,0.00,,---,0.02,VWS V14.00,2013-06-08 08:02:00,
2013-06-08 04:07:00,57.3,56.2,29.54,NNW,336,8.0,15.0,96,0.00,,---,0.02,VWS V14.00,2013-06-08 08:07:00,
2013-06-08 04:12:00,57.3,56.2,29.55,NNE,17,5.0,12.0,96,0.00,,---,0.02,VWS V14.00,2013-06-08 08:12:00,
2013-06-08 04:17:00,57.3,56.2,29.55,NNE,22,5.0,9.0,96,0.00,,---,0.02,VWS V14.00,2013-06-08 08:17:00,
2013-06-08 04:22:00,57.3,56.2,29.55,NNW,345,12.0,13.0,96,0.00,,---,0.02,VWS V14.00,2013-06-08 08:22:00,
2013-06-08 04:28:00,57.3,56.2,29.54,NNW,345,11.0,14.0,96,0.00,,---,0.02,VWS V14.00,2013-06-08 08:28:00,
2013-06-08 04:33:00,57.3,56.2,29.55,NNW,338,9.0,15.0,96,0.00,,---,0.02,VWS V14.00,2013-06-08 08:33:00,
2013-06-08 04:38:00,57.4,56.3,29.56,NNW,342,8.0,11.0,96,0.00,,---,0.02,VWS V14.00,2013-06-08 08:38:00,
2013-06-08 04:43:00,57.3,56.2,29.56,NNW,345,9.0,10.0,96,0.00,,---,0.02,VWS V14.00,2013-06-08 08:43:00,
2013-06-08 04:48:00,57.4,56.3,29.57,North,350,7.0,12.0,96,0.00,,---,0.02,VWS V14.00,2013-06-08 08:48:00,
2013-06-08 04:53:00,57.4,56.3,29.57,NNW,338,6.0,11.0,96,0.00,,---,0.02,VWS V14.00,2013-06-08 08:53:00,
2013-06-08 04:58:00,57.4,56.3,29.58,North,8,10.0,10.0,96,0.00,,---,0.02,VWS V14.00,2013-06-08 08:58:00,
2013-06-08 05:03:00,57.4,56.3,29.57,NNE,16,7.0,11.0,96,0.00,,---,0.02,VWS V14.00,2013-06-08 09:03:00,
2013-06-08 05:08:00,57.5,56.4,29.58,WNW,295,3.0,5.0,96,0.00,,---,0.02,VWS V14.00,2013-06-08 09:08:00,
2013-06-08 05:13:00,57.5,56.4,29.59,WNW,290,1.0,2.0,96,0.00,,---,0.02,VWS V14.00,2013-06-08 09:13:00,
2013-06-08 05:18:00,57.5,56.4,29.59,NNW,333,5.0,5.0,96,0.00,,---,0.02,VWS V14.00,2013-06-08 09:18:00,
2013-06-08 05:23:00,57.5,56.1,29.59,NW,311,5.0,7.0,95,0.00,,---,0.02,VWS V14.00,2013-06-08 09:23:00,
2013-06-08 05:28:00,57.6,56.2,29.59,NNW,340,9.0,9.0,95,0.00,,---,0.02,VWS V14.00,2013-06-08 09:28:00,
2013-06-08 05:33:00,57.6,56.2,29.60,NNW,335,4.0,7.0,95,0.00,,---,0.02,VWS V14.00,2013-06-08 09:33:00,
2013-06-08 05:38:00,57.5,56.1,29.61,NW,305,5.0,6.0,95,0.00,,---,0.02,VWS V14.00,2013-06-08 09:38:00,
2013-06-08 05:44:00,57.6,56.2,29.62,NNW,346,8.0,8.0,95,0.00,,---,0.02,VWS V14.00,2013-06-08 09:44:00,
2013-06-08 05:49:00,57.7,56.3,29.62,NNE,27,6.0,6.0,95,0.00,,---,0.02,VWS V14.00,2013-06-08 09:49:00,
2013-06-08 05:54:00,57.8,56.4,29.62,North,5,4.0,6.0,95,0.00,,---,0.02,VWS V14.00,2013-06-08 09:54:00,
2013-06-08 05:59:00,57.8,56.4,29.62,NNW,340,6.0,8.0,95,0.00,,---,0.02,VWS V14.00,2013-06-08 09:59:00,
2013-06-08 06:04:00,57.9,56.2,29.63,NW,307,1.0,3.0,94,0.00,,---,0.02,VWS V14.00,2013-06-08 10:04:00,
2013-06-08 06:09:00,57.9,56.5,29.65,NW,315,6.0,7.0,95,0.00,,---,0.02,VWS V14.00,2013-06-08 10:09:00,
2013-06-08 06:15:00,58.0,56.6,29.65,NNW,329,3.0,5.0,95,0.00,,---,0.02,VWS V14.00,2013-06-08 10:15:00,
2013-06-08 06:20:00,58.1,56.7,29.65,NW,317,6.0,6.0,95,0.00,,---,0.02,VWS V14.00,2013-06-08 10:20:00,
2013-06-08 06:25:00,58.2,56.8,29.66,NW,314,6.0,6.0,95,0.00,,---,0.02,VWS V14.00,2013-06-08 10:25:00,
2013-06-08 06:30:00,58.6,56.9,29.66,NNW,345,4.0,5.0,94,0.00,,---,0.02,VWS V14.00,2013-06-08 10:30:00,
2013-06-08 06:35:00,59.3,57.3,29.66,North,1,2.0,3.0,93,0.00,,---,0.02,VWS V14.00,2013-06-08 10:35:00,
2013-06-08 06:40:00,59.8,57.5,29.67,West,277,0.0,1.0,92,0.00,,---,0.02,VWS V14.00,2013-06-08 10:40:00,
2013-06-08 06:45:00,60.4,58.1,29.68,SW,226,1.0,2.0,92,0.00,,---,0.02,VWS V14.00,2013-06-08 10:45:00,
2013-06-08 06:50:00,60.6,58.0,29.68,SW,218,0.0,1.0,91,0.00,,---,0.02,VWS V14.00,2013-06-08 10:50:00,
2013-06-08 06:55:00,61.1,58.5,29.68,SW,221,0.0,0.0,91,0.00,,---,0.02,VWS V14.00,2013-06-08 10:55:00,
2013-06-08 07:00:00,61.4,58.1,29.68,WNW,288,0.0,0.0,89,0.00,,---,0.02,VWS V14.00,2013-06-08 11:00:00,
2013-06-08 07:05:00,61.8,58.5,29.68,West,276,0.0,0.0,89,0.00,,---,0.02,VWS V14.00,2013-06-08 11:05:00,
2013-06-08 07:10:00,62.1,58.8,29.68,NNW,333,0.0,0.0,89,0.00,,---,0.02,VWS V14.00,2013-06-08 11:10:00,
2013-06-08 07:15:00,62.2,58.3,29.68,NNW,347,0.0,0.0,87,0.00,,---,0.02,VWS V14.00,2013-06-08 11:15:00,
2013-06-08 07:21:00,62.1,58.5,29.68,WNW,288,5.0,5.0,88,0.00,,---,0.02,VWS V14.00,2013-06-08 11:21:00,
2013-06-08 07:26:00,61.9,58.3,29.69,West,278,1.0,3.0,88,0.00,,---,0.02,VWS V14.00,2013-06-08 11:26:00,
2013-06-08 07:31:00,62.0,58.7,29.69,West,281,1.0,3.0,89,0.00,,---,0.02,VWS V14.00,2013-06-08 11:31:00,
2013-06-08 07:36:00,62.4,59.4,29.69,West,281,0.0,2.0,90,0.00,,---,0.02,VWS V14.00,2013-06-08 11:36:00,
2013-06-08 07:41:00,62.6,59.0,29.70,WSW,240,2.0,3.0,88,0.00,,---,0.02,VWS V14.00,2013-06-08 11:41:00,
2013-06-08 07:46:00,62.5,58.9,29.70,West,274,0.0,3.0,88,0.00,,---,0.02,VWS V14.00,2013-06-08 11:46:00,
2013-06-08 07:51:00,62.4,59.1,29.71,West,277,0.0,4.0,89,0.00,,---,0.02,VWS V14.00,2013-06-08 11:51:00,
2013-06-08 07:56:00,62.8,59.8,29.71,SSE,150,1.0,2.0,90,0.00,,---,0.02,VWS V14.00,2013-06-08 11:56:00,
2013-06-08 08:01:00,62.8,59.2,29.71,NW,305,2.0,4.0,88,0.00,,---,0.02,VWS V14.00,2013-06-08 12:01:00,
2013-06-08 08:06:00,62.9,59.6,29.72,South,181,0.0,2.0,89,0.00,,---,0.02,VWS V14.00,2013-06-08 12:06:00,
2013-06-08 08:11:00,63.1,59.8,29.71,SW,221,3.0,4.0,89,0.00,,---,0.02,VWS V14.00,2013-06-08 12:11:00,
2013-06-08 08:16:00,63.6,60.0,29.72,West,277,0.0,3.0,88,0.00,,---,0.02,VWS V14.00,2013-06-08 12:16:00,
2013-06-08 08:21:00,64.4,60.8,29.72,West,263,0.0,0.0,88,0.00,,---,0.02,VWS V14.00,2013-06-08 12:21:00,
2013-06-08 08:27:00,65.3,61.7,29.72,South,169,0.0,0.0,88,0.00,,---,0.02,VWS V14.00,2013-06-08 12:27:00,
2013-06-08 08:32:00,65.7,61.4,29.72,West,276,2.0,4.0,86,0.00,,---,0.02,VWS V14.00,2013-06-08 12:32:00,
2013-06-08 08:37:00,65.5,61.2,29.73,WSW,254,0.0,5.0,86,0.00,,---,0.02,VWS V14.00,2013-06-08 12:37:00,
2013-06-08 08:42:00,66.0,62.0,29.73,WNW,283,2.0,3.0,87,0.00,,---,0.02,VWS V14.00,2013-06-08 12:42:00,
2013-06-08 08:47:00,66.5,62.2,29.73,West,281,1.0,5.0,86,0.00,,---,0.02,VWS V14.00,2013-06-08 12:47:00,
2013-06-08 08:52:00,66.8,61.8,29.74,NNE,25,4.0,9.0,84,0.00,,---,0.02,VWS V14.00,2013-06-08 12:52:00,
2013-06-08 08:57:00,66.9,62.6,29.74,WSW,250,0.0,4.0,86,0.00,,---,0.02,VWS V14.00,2013-06-08 12:57:00,
2013-06-08 09:02:00,67.1,62.5,29.73,WNW,292,3.0,5.0,85,0.00,,---,0.02,VWS V14.00,2013-06-08 13:02:00,
2013-06-08 09:08:00,67.5,62.2,29.74,NW,309,1.0,6.0,83,0.00,,---,0.02,VWS V14.00,2013-06-08 13:08:00,
2013-06-08 09:13:00,67.9,62.5,29.74,SW,236,0.0,6.0,83,0.00,,---,0.02,VWS V14.00,2013-06-08 13:13:00,
2013-06-08 09:18:00,68.8,63.4,29.74,WSW,255,3.0,6.0,83,0.00,,---,0.02,VWS V14.00,2013-06-08 13:18:00,
2013-06-08 09:23:00,69.0,62.6,29.74,WNW,298,6.0,12.0,80,0.00,,---,0.02,VWS V14.00,2013-06-08 13:23:00,
2013-06-08 09:28:00,68.9,62.1,29.74,WNW,293,3.0,11.0,79,0.00,,---,0.02,VWS V14.00,2013-06-08 13:28:00,
2013-06-08 09:33:00,69.4,63.3,29.75,WNW,286,4.0,5.0,81,0.00,,---,0.02,VWS V14.00,2013-06-08 13:33:00,
2013-06-08 09:38:00,69.8,62.6,29.75,NW,307,3.0,8.0,78,0.00,,---,0.02,VWS V14.00,2013-06-08 13:38:00,
2013-06-08 09:43:00,70.1,62.6,29.75,WNW,297,3.0,9.0,77,0.00,,---,0.02,VWS V14.00,2013-06-08 13:43:00,
2013-06-08 09:48:00,70.7,63.5,29.75,East,98,3.0,8.0,78,0.00,,---,0.02,VWS V14.00,2013-06-08 13:48:00,
2013-06-08 09:53:00,71.1,63.2,29.75,West,277,1.0,11.0,76,0.00,,---,0.02,VWS V14.00,2013-06-08 13:53:00,
2013-06-08 09:58:00,71.6,63.6,29.75,West,264,3.0,6.0,76,0.00,,---,0.02,VWS V14.00,2013-06-08 13:58:00,
2013-06-08 10:03:00,71.9,63.9,29.75,NW,304,1.0,9.0,76,0.00,,---,0.02,VWS V14.00,2013-06-08 14:03:00,
2013-06-08 10:08:00,72.0,63.3,29.75,NNW,329,6.0,10.0,74,0.00,,---,0.02,VWS V14.00,2013-06-08 14:08:00,
2013-06-08 10:13:00,72.1,63.4,29.75,NW,322,7.0,10.0,74,0.00,,---,0.02,VWS V14.00,2013-06-08 14:13:00,
2013-06-08 10:18:00,72.2,63.1,29.75,NNW,329,5.0,9.0,73,0.00,,---,0.02,VWS V14.00,2013-06-08 14:18:00,
2013-06-08 10:23:00,72.3,63.6,29.76,NW,309,2.0,4.0,74,0.00,,---,0.02,VWS V14.00,2013-06-08 14:23:00,
2013-06-08 10:28:00,72.7,63.5,29.76,WNW,288,2.0,4.0,73,0.00,,---,0.02,VWS V14.00,2013-06-08 14:28:00,
2013-06-08 10:34:00,72.4,63.3,29.77,West,267,3.0,3.0,73,0.00,,---,0.02,VWS V14.00,2013-06-08 14:34:00,
2013-06-08 10:38:00,72.9,63.3,29.77,NW,316,7.0,7.0,72,0.00,,---,0.02,VWS V14.00,2013-06-08 14:38:00,
2013-06-08 10:43:00,73.3,63.3,29.77,WNW,295,1.0,3.0,71,0.00,,---,0.02,VWS V14.00,2013-06-08 14:43:00,
2013-06-08 10:48:00,73.9,63.9,29.77,NW,323,5.0,8.0,71,0.00,,---,0.02,VWS V14.00,2013-06-08 14:48:00,
2013-06-08 10:54:00,74.7,63.9,29.77,NW,321,11.0,11.0,69,0.00,,---,0.02,VWS V14.00,2013-06-08 14:54:00,
2013-06-08 10:59:00,74.6,64.2,29.77,North,355,8.0,8.0,70,0.00,,---,0.02,VWS V14.00,2013-06-08 14:59:00,
2013-06-08 11:04:00,75.1,63.4,29.77,NW,316,4.0,9.0,67,0.00,,---,0.02,VWS V14.00,2013-06-08 15:04:00,
2013-06-08 11:09:00,75.2,63.1,29.78,NW,315,9.0,9.0,66,0.00,,---,0.02,VWS V14.00,2013-06-08 15:09:00,
2013-06-08 11:14:00,75.2,63.5,29.78,WNW,288,5.0,7.0,67,0.00,,---,0.02,VWS V14.00,2013-06-08 15:14:00,
2013-06-08 11:19:00,75.5,63.8,29.78,West,278,8.0,8.0,67,0.00,,---,0.02,VWS V14.00,2013-06-08 15:19:00,
2013-06-08 11:24:00,75.3,63.2,29.78,NW,323,4.0,8.0,66,0.00,,---,0.02,VWS V14.00,2013-06-08 15:24:00,
2013-06-08 11:29:00,75.4,63.7,29.78,WNW,297,9.0,12.0,67,0.00,,---,0.02,VWS V14.00,2013-06-08 15:29:00,
2013-06-08 11:34:00,75.7,64.0,29.78,NW,309,5.0,7.0,67,0.00,,---,0.02,VWS V14.00,2013-06-08 15:34:00,
2013-06-08 11:39:00,75.5,62.9,29.78,WSW,250,1.0,4.0,65,0.00,,---,0.02,VWS V14.00,2013-06-08 15:39:00,
2013-06-08 11:44:00,75.6,63.5,29.78,West,267,3.0,6.0,66,0.00,,---,0.02,VWS V14.00,2013-06-08 15:44:00,
2013-06-08 11:49:00,75.6,63.0,29.78,NW,309,2.0,5.0,65,0.00,,---,0.02,VWS V14.00,2013-06-08 15:49:00,
2013-06-08 11:54:00,76.2,64.0,29.79,WNW,293,2.0,4.0,66,0.00,,---,0.02,VWS V14.00,2013-06-08 15:54:00,
2013-06-08 11:59:00,75.9,63.3,29.79,NW,324,4.0,6.0,65,0.00,,---,0.02,VWS V14.00,2013-06-08 15:59:00,
2013-06-08 12:05:00,75.7,63.1,29.79,NNE,22,3.0,6.0,65,0.00,,---,0.02,VWS V14.00,2013-06-08 16:05:00,
2013-06-08 12:10:00,76.3,64.1,29.80,West,263,2.0,5.0,66,0.00,,---,0.02,VWS V14.00,2013-06-08 16:10:00,
2013-06-08 12:15:00,76.5,64.7,29.79,NNW,330,1.0,6.0,67,0.00,,---,0.02,VWS V14.00,2013-06-08 16:15:00,
2013-06-08 12:20:00,76.9,64.7,29.79,NW,317,3.0,6.0,66,0.00,,---,0.02,VWS V14.00,2013-06-08 16:20:00,
2013-06-08 12:25:00,76.5,63.9,29.79,NW,308,4.0,9.0,65,0.00,,---,0.02,VWS V14.00,2013-06-08 16:25:00,
2013-06-08 12:30:00,76.2,63.6,29.79,NW,304,0.0,6.0,65,0.00,,---,0.02,VWS V14.00,2013-06-08 16:30:00,
2013-06-08 12:35:00,76.5,63.4,29.79,WNW,295,5.0,7.0,64,0.00,,---,0.02,VWS V14.00,2013-06-08 16:35:00,
2013-06-08 12:40:00,77.0,63.5,29.80,North,360,6.0,9.0,63,0.00,,---,0.02,VWS V14.00,2013-06-08 16:40:00,
2013-06-08 12:45:00,76.9,63.8,29.80,NW,307,5.0,7.0,64,0.00,,---,0.02,VWS V14.00,2013-06-08 16:45:00,
2013-06-08 12:50:00,77.1,64.0,29.80,NW,314,5.0,7.0,64,0.00,,---,0.02,VWS V14.00,2013-06-08 16:50:00,
2013-06-08 12:55:00,77.7,63.7,29.80,NW,304,4.0,9.0,62,0.00,,---,0.02,VWS V14.00,2013-06-08 16:55:00,
2013-06-08 13:00:00,77.8,64.2,29.80,West,274,5.0,8.0,63,0.00,,---,0.02,VWS V14.00,2013-06-08 17:00:00,
2013-06-08 13:05:00,78.0,64.4,29.80,NW,324,7.0,7.0,63,0.00,,---,0.02,VWS V14.00,2013-06-08 17:05:00,
2013-06-08 13:10:00,78.5,64.4,29.80,WNW,285,8.0,10.0,62,0.00,,---,0.02,VWS V14.00,2013-06-08 17:10:00,
2013-06-08 13:16:00,79.0,64.4,29.80,WSW,253,7.0,8.0,61,0.00,,---,0.02,VWS V14.00,2013-06-08 17:16:00,
2013-06-08 13:21:00,78.6,63.1,29.80,WNW,302,7.0,11.0,59,0.00,,---,0.02,VWS V14.00,2013-06-08 17:21:00,
2013-06-08 13:26:00,77.9,62.9,29.80,NW,311,8.0,8.0,60,0.00,,---,0.02,VWS V14.00,2013-06-08 17:26:00,
2013-06-08 13:31:00,78.3,62.8,29.79,North,350,8.0,8.0,59,0.00,,---,0.02,VWS V14.00,2013-06-08 17:31:00,
2013-06-08 13:36:00,78.2,63.7,29.80,WNW,302,0.0,10.0,61,0.00,,---,0.02,VWS V14.00,2013-06-08 17:36:00,
2013-06-08 13:41:00,78.1,63.1,29.80,NNW,334,6.0,13.0,60,0.00,,---,0.02,VWS V14.00,2013-06-08 17:41:00,
2013-06-08 13:46:00,78.1,64.0,29.80,WSW,240,2.0,8.0,62,0.00,,---,0.02,VWS V14.00,2013-06-08 17:46:00,
2013-06-08 13:52:00,78.1,63.1,29.80,West,263,2.0,10.0,60,0.00,,---,0.02,VWS V14.00,2013-06-08 17:52:00,
2013-06-08 13:57:00,78.3,62.8,29.80,WNW,295,3.0,7.0,59,0.00,,---,0.02,VWS V14.00,2013-06-08 17:57:00,
2013-06-08 14:02:00,78.9,63.4,29.80,WNW,293,2.0,7.0,59,0.00,,---,0.02,VWS V14.00,2013-06-08 18:02:00,
2013-06-08 14:07:00,79.3,64.7,29.80,West,281,7.0,8.0,61,0.00,,---,0.02,VWS V14.00,2013-06-08 18:07:00,
2013-06-08 14:12:00,78.9,63.8,29.80,SW,221,2.0,6.0,60,0.00,,---,0.02,VWS V14.00,2013-06-08 18:12:00,
2013-06-08 14:17:00,78.4,63.4,29.80,WNW,290,2.0,8.0,60,0.00,,---,0.02,VWS V14.00,2013-06-08 18:17:00,
2013-06-08 14:22:00,78.2,63.7,29.80,West,264,2.0,6.0,61,0.00,,---,0.02,VWS V14.00,2013-06-08 18:22:00,
2013-06-08 14:27:00,78.4,63.8,29.81,SW,231,3.0,6.0,61,0.00,,---,0.02,VWS V14.00,2013-06-08 18:27:00,
2013-06-08 14:32:00,78.1,63.6,29.80,WSW,257,4.0,8.0,61,0.00,,---,0.02,VWS V14.00,2013-06-08 18:32:00,
2013-06-08 14:37:00,77.6,64.0,29.81,NW,307,2.0,9.0,63,0.00,,---,0.02,VWS V14.00,2013-06-08 18:37:00,
2013-06-08 14:42:00,77.3,63.7,29.80,WNW,283,5.0,7.0,63,0.00,,---,0.02,VWS V14.00,2013-06-08 18:42:00,
2013-06-08 14:47:00,77.2,64.1,29.80,North,355,1.0,6.0,64,0.00,,---,0.02,VWS V14.00,2013-06-08 18:47:00,
2013-06-08 14:52:00,77.3,64.6,29.80,NW,314,4.0,4.0,65,0.00,,---,0.02,VWS V14.00,2013-06-08 18:52:00,
2013-06-08 14:57:00,77.5,64.4,29.80,SSE,160,1.0,6.0,64,0.00,,---,0.02,VWS V14.00,2013-06-08 18:57:00,
2013-06-08 15:02:00,77.8,64.2,29.80,WNW,287,6.0,6.0,63,0.00,,---,0.02,VWS V14.00,2013-06-08 19:02:00,
2013-06-08 15:07:00,77.5,64.4,29.80,NW,310,3.0,6.0,64,0.00,,---,0.02,VWS V14.00,2013-06-08 19:07:00,
2013-06-08 15:12:00,77.1,64.0,29.80,SW,236,2.0,6.0,64,0.00,,---,0.02,VWS V14.00,2013-06-08 19:12:00,
2013-06-08 15:18:00,77.2,64.5,29.80,NW,304,3.0,5.0,65,0.00,,---,0.02,VWS V14.00,2013-06-08 19:18:00,
2013-06-08 15:23:00,77.0,63.9,29.81,NW,308,6.0,9.0,64,0.00,,---,0.02,VWS V14.00,2013-06-08 19:23:00,
2013-06-08 15:28:00,76.6,64.0,29.80,NW,308,3.0,9.0,65,0.00,,---,0.02,VWS V14.00,2013-06-08 19:28:00,
2013-06-08 15:33:00,76.3,64.1,29.80,WNW,286,3.0,6.0,66,0.00,,---,0.02,VWS V14.00,2013-06-08 19:33:00,
2013-06-08 15:38:00,76.2,64.0,29.81,WNW,296,1.0,5.0,66,0.00,,---,0.02,VWS V14.00,2013-06-08 19:38:00,
2013-06-08 15:43:00,76.1,63.9,29.81,SW,226,3.0,6.0,66,0.00,,---,0.02,VWS V14.00,2013-06-08 19:43:00,
2013-06-08 15:48:00,76.1,63.9,29.81,NW,311,3.0,8.0,66,0.00,,---,0.02,VWS V14.00,2013-06-08 19:48:00,
2013-06-08 15:53:00,76.1,63.9,29.80,West,259,4.0,7.0,66,0.00,,---,0.02,VWS V14.00,2013-06-08 19:53:00,
2013-06-08 15:58:00,76.2,63.6,29.80,NW,318,1.0,4.0,65,0.00,,---,0.02,VWS V14.00,2013-06-08 19:58:00,
2013-06-08 16:03:00,76.1,63.9,29.81,WNW,295,2.0,3.0,66,0.00,,---,0.02,VWS V14.00,2013-06-08 20:03:00,
2013-06-08 16:08:00,76.2,64.0,29.82,WNW,302,3.0,5.0,66,0.00,,---,0.02,VWS V14.00,2013-06-08 20:08:00,
2013-06-08 16:13:00,76.2,64.0,29.81,NW,307,3.0,4.0,66,0.00,,---,0.02,VWS V14.00,2013-06-08 20:13:00,
2013-06-08 16:19:00,76.4,64.2,29.82,SW,214,2.0,4.0,66,0.00,,---,0.02,VWS V14.00,2013-06-08 20:19:00,
2013-06-08 16:24:00,77.0,64.8,29.82,South,169,0.0,1.0,66,0.00,,---,0.02,VWS V14.00,2013-06-08 20:24:00,
2013-06-08 16:29:00,77.4,64.3,29.82,West,281,5.0,5.0,64,0.00,,---,0.02,VWS V14.00,2013-06-08 20:29:00,
2013-06-08 16:34:00,77.2,64.1,29.82,WSW,257,2.0,6.0,64,0.00,,---,0.02,VWS V14.00,2013-06-08 20:34:00,
2013-06-08 16:39:00,77.2,64.5,29.82,WSW,243,5.0,5.0,65,0.00,,---,0.02,VWS V14.00,2013-06-08 20:39:00,
2013-06-08 16:44:00,77.1,64.0,29.83,West,274,2.0,7.0,64,0.00,,---,0.02,VWS V14.00,2013-06-08 20:44:00,
2013-06-08 16:49:00,76.8,64.2,29.83,NW,316,3.0,3.0,65,0.00,,---,0.02,VWS V14.00,2013-06-08 20:49:00,
2013-06-08 16:54:00,76.5,64.3,29.83,SW,224,2.0,3.0,66,0.00,,---,0.02,VWS V14.00,2013-06-08 20:54:00,
2013-06-08 16:59:00,76.7,64.1,29.83,WNW,295,1.0,3.0,65,0.00,,---,0.02,VWS V14.00,2013-06-08 20:59:00,
2013-06-08 17:04:00,76.5,63.9,29.83,NW,325,3.0,6.0,65,0.00,,---,0.02,VWS V14.00,2013-06-08 21:04:00,
2013-06-08 17:09:00,76.5,63.9,29.83,WNW,295,1.0,8.0,65,0.00,,---,0.02,VWS V14.00,2013-06-08 21:09:00,
2013-06-08 17:14:00,76.5,63.9,29.83,NNW,330,6.0,7.0,65,0.00,,---,0.02,VWS V14.00,2013-06-08 21:14:00,
2013-06-08 17:19:00,76.4,63.3,29.83,West,259,2.0,6.0,64,0.00,,---,0.02,VWS V14.00,2013-06-08 21:19:00,
2013-06-08 17:24:00,76.6,63.5,29.83,NW,316,3.0,6.0,64,0.00,,---,0.02,VWS V14.00,2013-06-08 21:24:00,
2013-06-08 17:30:00,76.5,63.4,29.83,NW,321,4.0,7.0,64,0.00,,---,0.02,VWS V14.00,2013-06-08 21:30:00,
2013-06-08 17:35:00,76.5,63.9,29.84,North,349,4.0,6.0,65,0.00,,---,0.02,VWS V14.00,2013-06-08 21:35:00,
2013-06-08 17:39:00,76.8,63.7,29.84,NNW,338,3.0,5.0,64,0.00,,---,0.02,VWS V14.00,2013-06-08 21:39:00,
2013-06-08 17:45:00,77.4,64.3,29.84,NNE,26,8.0,9.0,64,0.00,,---,0.02,VWS V14.00,2013-06-08 21:45:00,
2013-06-08 17:50:00,77.1,64.0,29.84,NNW,342,5.0,5.0,64,0.00,,---,0.02,VWS V14.00,2013-06-08 21:50:00,
2013-06-08 17:55:00,77.4,63.8,29.84,NNW,331,4.0,9.0,63,0.00,,---,0.02,VWS V14.00,2013-06-08 21:55:00,
2013-06-08 18:00:00,77.4,63.8,29.84,NW,326,5.0,10.0,63,0.00,,---,0.02,VWS V14.00,2013-06-08 22:00:00,
2013-06-08 18:05:00,77.6,64.0,29.84,NE,40,3.0,4.0,63,0.00,,---,0.02,VWS V14.00,2013-06-08 22:05:00,
2013-06-08 18:10:00,77.3,63.7,29.84,North,352,4.0,5.0,63,0.00,,---,0.02,VWS V14.00,2013-06-08 22:10:00,
2013-06-08 18:15:00,77.5,63.9,29.84,West,278,1.0,9.0,63,0.00,,---,0.02,VWS V14.00,2013-06-08 22:15:00,
2013-06-08 18:20:00,77.5,63.5,29.85,NNE,27,4.0,7.0,62,0.00,,---,0.02,VWS V14.00,2013-06-08 22:20:00,
2013-06-08 18:25:00,77.2,64.1,29.85,West,260,6.0,6.0,64,0.00,,---,0.02,VWS V14.00,2013-06-08 22:25:00,
2013-06-08 18:30:00,77.2,63.6,29.85,NW,307,3.0,3.0,63,0.00,,---,0.02,VWS V14.00,2013-06-08 22:30:00,
2013-06-08 18:35:00,77.9,63.8,29.85,NW,312,4.0,5.0,62,0.00,,---,0.02,VWS V14.00,2013-06-08 22:35:00,
2013-06-08 18:40:00,77.6,63.6,29.86,South,191,6.0,8.0,62,0.00,,---,0.02,VWS V14.00,2013-06-08 22:40:00,
2013-06-08 18:45:00,77.0,63.0,29.86,NNW,336,4.0,8.0,62,0.00,,---,0.02,VWS V14.00,2013-06-08 22:45:00,
2013-06-08 18:51:00,77.2,64.1,29.86,NW,322,2.0,5.0,64,0.00,,---,0.02,VWS V14.00,2013-06-08 22:51:00,
2013-06-08 18:56:00,76.8,63.7,29.86,NW,323,4.0,6.0,64,0.00,,---,0.02,VWS V14.00,2013-06-08 22:56:00,
2013-06-08 19:01:00,76.5,63.4,29.86,NNW,345,5.0,6.0,64,0.00,,---,0.02,VWS V14.00,2013-06-08 23:01:00,
2013-06-08 19:06:00,76.2,63.6,29.86,NNE,28,4.0,5.0,65,0.00,,---,0.02,VWS V14.00,2013-06-08 23:06:00,
2013-06-08 19:11:00,76.4,63.8,29.86,NNE,13,1.0,8.0,65,0.00,,---,0.02,VWS V14.00,2013-06-08 23:11:00,
2013-06-08 19:16:00,76.4,63.8,29.87,NNE,19,7.0,7.0,65,0.00,,---,0.02,VWS V14.00,2013-06-08 23:16:00,
2013-06-08 19:21:00,76.6,64.0,29.87,NW,325,2.0,6.0,65,0.00,,---,0.02,VWS V14.00,2013-06-08 23:21:00,
2013-06-08 19:26:00,76.4,63.8,29.87,NNW,342,5.0,7.0,65,0.00,,---,0.02,VWS V14.00,2013-06-08 23:26:00,
2013-06-08 19:32:00,75.9,63.3,29.87,NNW,338,7.0,8.0,65,0.00,,---,0.02,VWS V14.00,2013-06-08 23:32:00,
2013-06-08 19:37:00,75.5,62.9,29.87,NNW,328,6.0,8.0,65,0.00,,---,0.02,VWS V14.00,2013-06-08 23:37:00,
2013-06-08 19:42:00,75.4,63.3,29.88,NNW,347,2.0,8.0,66,0.00,,---,0.02,VWS V14.00,2013-06-08 23:42:00,
2013-06-08 19:47:00,75.3,62.7,29.88,NE,40,4.0,7.0,65,0.00,,---,0.02,VWS V14.00,2013-06-08 23:47:00,
2013-06-08 19:52:00,74.8,62.7,29.88,NNE,31,6.0,7.0,66,0.00,,---,0.02,VWS V14.00,2013-06-08 23:52:00,
2013-06-08 19:57:00,74.5,62.8,29.87,NE,40,2.0,4.0,67,0.00,,---,0.02,VWS V14.00,2013-06-08 23:57:00,
2013-06-08 20:02:00,74.2,62.5,29.87,NNE,20,2.0,4.0,67,0.00,,---,0.02,VWS V14.00,2013-06-09 00:02:00,
2013-06-08 20:08:00,74.0,62.8,29.88,NNE,18,4.0,4.0,68,0.00,,---,0.02,VWS V14.00,2013-06-09 00:08:00,
2013-06-08 20:13:00,73.8,62.6,29.88,North,353,2.0,4.0,68,0.00,,---,0.02,VWS V14.00,2013-06-09 00:13:00,
2013-06-08 20:18:00,73.5,62.7,29.88,NW,324,0.0,3.0,69,0.00,,---,0.02,VWS V14.00,2013-06-09 00:18:00,
2013-06-08 20:23:00,73.1,62.3,29.88,NW,321,3.0,3.0,69,0.00,,---,0.02,VWS V14.00,2013-06-09 00:23:00,
2013-06-08 20:28:00,72.9,62.5,29.88,North,3,0.0,3.0,70,0.00,,---,0.02,VWS V14.00,2013-06-09 00:28:00,
2013-06-08 20:33:00,72.6,62.7,29.88,North,3,0.0,1.0,71,0.00,,---,0.02,VWS V14.00,2013-06-09 00:33:00,
2013-06-08 20:38:00,72.2,62.7,29.88,North,3,1.0,1.0,72,0.00,,---,0.02,VWS V14.00,2013-06-09 00:38:00,
2013-06-08 20:43:00,71.8,62.3,29.88,North,3,0.0,0.0,72,0.00,,---,0.02,VWS V14.00,2013-06-09 00:43:00,
2013-06-08 20:48:00,71.2,62.1,29.88,North,3,0.0,0.0,73,0.00,,---,0.02,VWS V14.00,2013-06-09 00:48:00,
2013-06-08 20:53:00,70.7,62.0,29.89,North,4,0.0,0.0,74,0.00,,---,0.02,VWS V14.00,2013-06-09 00:53:00,
2013-06-08 20:58:00,70.1,62.6,29.89,North,4,0.0,0.0,77,0.00,,---,0.02,VWS V14.00,2013-06-09 00:58:00,
2013-06-08 21:03:00,69.9,62.4,29.90,North,4,0.0,0.0,77,0.00,,---,0.02,VWS V14.00,2013-06-09 01:03:00,
2013-06-08 21:08:00,69.7,62.2,29.90,North,4,0.0,0.0,77,0.00,,---,0.02,VWS V14.00,2013-06-09 01:08:00,
2013-06-08 21:13:00,69.4,62.6,29.90,North,3,0.0,0.0,79,0.00,,---,0.02,VWS V14.00,2013-06-09 01:13:00,
2013-06-08 21:18:00,69.2,62.8,29.91,North,4,0.0,0.0,80,0.00,,---,0.02,VWS V14.00,2013-06-09 01:18:00,
2013-06-08 21:23:00,69.0,62.2,29.91,North,3,0.0,0.0,79,0.00,,---,0.02,VWS V14.00,2013-06-09 01:23:00,
2013-06-08 21:28:00,68.9,62.5,29.91,North,3,0.0,0.0,80,0.00,,---,0.02,VWS V14.00,2013-06-09 01:28:00,
2013-06-08 21:34:00,68.5,62.5,29.91,North,4,0.0,0.0,81,0.00,,---,0.02,VWS V14.00,2013-06-09 01:34:00,
2013-06-08 21:39:00,68.1,62.4,29.91,North,4,0.0,0.0,82,0.00,,---,0.02,VWS V14.00,2013-06-09 01:39:00,
2013-06-08 21:44:00,67.9,62.2,29.91,North,4,0.0,0.0,82,0.00,,---,0.02,VWS V14.00,2013-06-09 01:44:00,
2013-06-08 21:49:00,67.7,62.4,29.91,North,3,0.0,0.0,83,0.00,,---,0.02,VWS V14.00,2013-06-09 01:49:00,
2013-06-08 21:54:00,67.5,62.5,29.92,North,4,0.0,0.0,84,0.00,,---,0.02,VWS V14.00,2013-06-09 01:54:00,
2013-06-08 21:59:00,67.4,62.4,29.92,North,4,0.0,0.0,84,0.00,,---,0.02,VWS V14.00,2013-06-09 01:59:00,
2013-06-08 22:04:00,67.3,62.3,29.92,North,4,0.0,0.0,84,0.00,,---,0.02,VWS V14.00,2013-06-09 02:04:00,
2013-06-08 22:09:00,67.2,62.5,29.93,North,4,0.0,0.0,85,0.00,,---,0.02,VWS V14.00,2013-06-09 02:09:00,
2013-06-08 22:14:00,67.1,62.5,29.93,North,3,0.0,0.0,85,0.00,,---,0.02,VWS V14.00,2013-06-09 02:14:00,
2013-06-08 22:19:00,67.0,62.3,29.93,North,3,0.0,0.0,85,0.00,,---,0.02,VWS V14.00,2013-06-09 02:19:00,
2013-06-08 22:24:00,66.8,62.2,29.93,North,3,0.0,0.0,85,0.00,,---,0.02,VWS V14.00,2013-06-09 02:24:00,
2013-06-08 22:29:00,66.5,62.2,29.93,North,4,0.0,0.0,86,0.00,,---,0.02,VWS V14.00,2013-06-09 02:29:00,
2013-06-08 22:35:00,66.4,62.4,29.94,North,4,0.0,0.0,87,0.00,,---,0.02,VWS V14.00,2013-06-09 02:35:00,
2013-06-08 22:40:00,66.4,62.4,29.94,North,4,0.0,0.0,87,0.00,,---,0.02,VWS V14.00,2013-06-09 02:40:00,
2013-06-08 22:45:00,66.3,62.3,29.94,North,4,0.0,0.0,87,0.00,,---,0.02,VWS V14.00,2013-06-09 02:45:00,
2013-06-08 22:50:00,66.0,62.0,29.94,North,3,0.0,0.0,87,0.00,,---,0.02,VWS V14.00,2013-06-09 02:50:00,
2013-06-08 22:55:00,65.9,62.2,29.93,North,4,0.0,0.0,88,0.00,,---,0.02,VWS V14.00,2013-06-09 02:55:00,
2013-06-08 23:00:00,65.7,62.0,29.94,North,4,0.0,0.0,88,0.00,,---,0.02,VWS V14.00,2013-06-09 03:00:00,
2013-06-08 23:05:00,65.7,62.4,29.94,North,4,0.0,0.0,89,0.00,,---,0.02,VWS V14.00,2013-06-09 03:05:00,
2013-06-08 23:10:00,65.5,62.2,29.94,North,3,0.0,0.0,89,0.00,,---,0.02,VWS V14.00,2013-06-09 03:10:00,
2013-06-08 23:15:00,65.4,62.1,29.94,North,4,0.0,0.0,89,0.00,,---,0.02,VWS V14.00,2013-06-09 03:15:00,
2013-06-08 23:20:00,65.3,62.0,29.94,North,4,0.0,0.0,89,0.00,,---,0.02,VWS V14.00,2013-06-09 03:20:00,
2013-06-08 23:25:00,65.1,61.8,29.94,North,3,0.0,0.0,89,0.00,,---,0.02,VWS V14.00,2013-06-09 03:25:00,
2013-06-08 23:31:00,65.2,62.2,29.94,North,3,0.0,0.0,90,0.00,,---,0.02,VWS V14.00,2013-06-09 03:31:00,
2013-06-08 23:36:00,65.1,62.1,29.94,North,4,0.0,0.0,90,0.00,,---,0.02,VWS V14.00,2013-06-09 03:36:00,
2013-06-08 23:41:00,65.2,62.2,29.94,North,3,0.0,0.0,90,0.00,,---,0.02,VWS V14.00,2013-06-09 03:41:00,
2013-06-08 23:46:00,65.2,62.2,29.95,North,4,0.0,0.0,90,0.00,,---,0.02,VWS V14.00,2013-06-09 03:46:00,
2013-06-08 23:51:00,65.1,62.1,29.95,North,4,0.0,0.0,90,0.00,,---,0.02,VWS V14.00,2013-06-09 03:51:00,
2013-06-08 23:56:00,65.0,62.0,29.95,North,4,0.0,0.0,90,0.00,,---,0.02,VWS V14.00,2013-06-09 03:56:00,